Wind_Speed
16 16 17 17 17 18 19 19 19 19 20 19 19 20 20 20 20 20 20 20 20 20 20 19 19 19 19 19 19 19 19 20 21 21 22 22 22 22 23 23 23 24 24
17 17 18 17 17 17 18 19 19 19 19 19 20 20 20 20 20 20 19 19 19 19 18 18 18 18 19 19 18 18 18 19 19 19 20 21 21 21 20 21 21 22 22
17 17 18 18 18 18 18 19 19 19 19 19 20 20 19 19 19 20 19 19 18 18 18 18 17 18 18 18 17 17 18 18 18 18 18 19 19 19 19 20 20 20 20
18 19 19 19 18 19 19 19 19 20 20 20 19 19 19 19 19 19 18 18 17 17 17 17 17 17 17 17 17 17 17 17 17 17 17 17 18 18 18 18 18 18 19
19 19 18 19 19 19 19 20 20 21 20 20 19 19 19 19 18 18 18 17 17 16 16 16 16 16 17 17 17 17 17 17 17 16 16 17 17 18 18 18 18 17 17
20 20 19 19 19 19 19 20 21 20 20 19 19 18 18 18 17 17 17 17 15 15 16 16 16 17 16 16 16 16 16 17 16 16 16 17 17 17 17 17 16 15 14
20 20 19 20 19 19 19 20 20 20 19 19 19 18 18 17 16 16 16 15 14 14 14 15 15 15 14 15 15 16 16 17 17 17 16 17 16 15 15 14 14 14 13
21 20 20 20 20 19 19 20 20 20 20 20 19 18 18 17 16 16 15 13 13 13 13 14 13 13 13 14 15 16 16 16 16 16 17 16 15 13 13 12 12 12 11
22 21 21 21 20 20 20 20 20 20 20 19 19 18 18 17 16 15 15 13 12 13 13 13 13 12 12 13 13 14 14 15 16 15 15 14 14 13 11 11 10 10 10
22 21 21 21 22 21 21 21 20 20 19 19 19 18 17 16 16 15 14 14 13 13 13 13 13 13 13 13 13 13 13 13 13 13 13 13 13 12 11 10 10 10 10
22 22 21 21 21 21 21 21 21 20 20 19 19 18 17 16 16 15 14 13 13 13 13 13 13 13 12 12 12 12 12 12 11 12 12 12 11 11 11 10 10 9 10
22 21 21 21 21 21 21 21 22 21 21 21 20 19 18 17 16 15 14 13 13 13 13 12 12 12 12 12 12 12 11 11 11 11 11 10 10 10 10 10 9 9 9
23 22 22 21 22 22 22 22 22 21 21 22 21 20 19 17 17 16 15 15 14 14 14 13 13 12 12 12 12 12 11 11 11 10 9 9 9 10 10 9 9 9 9
24 23 23 23 22 23 23 23 22 23 22 21 19 19 18 18 17 17 17 16 15 15 14 14 14 13 12 12 12 12 11 11 11 10 10 9 9 9 9 9 9 9 9
25 24 24 23 23 23 23 23 23 22 21 21 19 19 19 19 18 17 16 16 16 16 16 15 15 14 14 13 13 12 12 12 12 11 11 10 9 9 8 8 8 9 9
25 25 24 23 23 23 22 22 22 22 21 20 20 19 19 19 19 18 17 16 16 16 16 15 15 15 14 14 14 13 12 12 11 10 9 9 9 8 8 8 9 9 9
24 24 23 23 23 23 22 21 20 21 21 20 20 20 19 19 19 18 18 17 17 16 15 14 14 14 14 15 15 13 12 11 10 10 9 9 9 9 9 9 10 10 10
24 24 24 24 23 22 22 21 20 20 20 19 19 19 19 18 18 18 18 18 18 17 16 16 15 15 15 15 14 14 13 11 11 11 11 11 11 11 11 10 11 11 11
24 24 24 24 23 23 22 21 21 21 21 20 20 19 19 19 18 18 18 18 18 18 17 17 17 16 16 16 15 14 13 12 12 12 12 11 11 12 12 12 12 12 12
24 24 24 23 23 23 22 22 21 21 21 21 20 20 20 20 19 19 19 18 18 18 17 17 18 17 16 16 15 15 14 14 13 13 13 13 13 13 13 13 13 12 12
23 23 23 23 22 22 23 22 22 22 22 21 21 21 21 20 20 19 19 19 19 18 18 17 17 17 16 15 15 15 15 15 15 15 15 14 14 13 14 14 14 14 13
23 22 22 22 22 22 22 22 22 22 23 22 22 21 21 21 21 20 20 20 19 18 18 18 18 18 17 17 16 16 16 16 16 16 16 16 15 15 15 15 16 16 16
24 23 22 22 21 21 22 22 22 21 21 22 21 21 21 21 21 20 20 19 19 19 18 18 18 18 18 18 18 17 17 17 17 17 17 17 17 17 16 17 17 17 18
24 24 22 21 21 22 22 22 23 22 21 21 21 20 20 20 20 19 19 19 18 19 19 18 18 18 18 19 19 18 18 18 18 18 18 18 18 19 19 19 19 19 19
24 24 22 21 21 22 22 23 23 22 23 22 22 21 20 20 20 20 19 19 18 19 19 20 20 20 20 19 19 19 19 19 19 19 19 19 19 20 20 21 20 20 20
23 23 23 22 22 22 22 21 22 22 21 21 21 21 20 21 21 20 19 19 18 18 19 19 20 19 19 20 20 20 20 20 20 20 20 20 20 20 21 21 21 21 22
Wind_Direction
301 304 306 307 308 309 311 311 310 308 305 304 302 301 301 301 301 299 298 297 295 293 291 290 288 288 289 291 292 291 287 285 286 285 280 278 278 277 276 277 277 277 276
301 302 304 305 306 310 311 312 311 311 309 306 305 304 302 303 303 302 300 298 295 291 290 290 290 288 289 290 292 293 290 288 288 287 284 279 276 276 277 279 281 280 277
300 301 302 303 304 307 310 313 313 313 312 311 311 309 306 306 305 304 303 300 296 290 289 291 291 290 289 289 290 291 291 293 292 290 286 283 278 276 279 282 282 282 280
299 300 300 301 303 304 306 310 313 315 317 316 312 312 312 310 306 306 305 302 298 294 292 292 294 292 289 289 290 291 291 294 293 293 290 286 282 281 282 283 283 283 283
297 299 299 299 299 302 304 308 311 315 317 318 314 312 311 312 310 309 309 304 298 296 294 292 294 294 290 288 290 291 291 295 294 293 292 291 288 286 284 286 285 284 282
297 296 295 296 298 301 304 306 309 312 315 318 317 314 312 313 315 315 311 309 303 300 298 296 295 295 292 288 289 291 291 292 292 291 291 295 295 290 286 287 285 284 280
295 295 293 293 294 298 302 305 307 310 312 313 314 315 315 316 317 320 318 316 313 308 303 301 302 302 297 294 293 293 293 292 292 291 291 295 298 295 291 287 283 282 278
293 293 292 289 291 294 299 302 303 306 310 311 310 310 313 317 316 317 320 319 321 317 313 310 308 307 304 302 299 296 293 292 292 290 290 292 292 293 290 287 283 281 279
290 290 290 291 292 294 297 299 300 302 306 309 308 307 309 314 317 316 317 317 320 318 314 310 308 307 306 308 307 301 295 293 293 291 292 291 292 293 289 285 282 281 280
287 289 291 291 291 294 296 295 297 300 302 305 307 306 305 307 309 311 313 313 315 316 315 312 309 307 309 309 312 309 305 301 295 292 292 291 290 289 286 283 282 282 279
284 286 288 290 291 291 293 293 298 301 302 302 304 304 303 302 301 303 305 307 311 313 313 311 309 308 309 313 317 319 317 311 303 298 294 289 288 286 282 281 280 283 283
282 284 285 286 287 289 290 292 296 298 300 300 300 301 301 299 299 299 299 301 305 307 309 308 306 307 313 319 324 324 321 316 309 304 296 286 283 285 285 280 279 282 287
281 282 283 284 286 287 289 291 293 294 296 298 296 296 298 297 297 296 296 296 298 302 306 305 302 303 310 317 320 318 317 318 313 304 294 284 279 280 282 280 276 279 287
279 280 281 282 283 285 287 289 291 294 295 295 293 293 293 294 295 293 291 291 295 295 296 299 301 303 305 309 312 314 314 315 311 301 291 282 279 279 281 279 276 278 286
279 279 280 281 282 284 286 287 289 291 294 295 294 292 290 289 290 290 289 288 289 291 293 294 296 301 303 303 303 306 310 310 311 303 291 281 275 277 278 273 274 280 284
281 280 280 281 283 285 286 287 287 287 289 292 291 289 287 286 286 286 286 288 286 287 289 289 291 293 297 299 297 298 302 305 307 305 295 282 274 271 271 274 278 283 288
281 282 282 282 282 283 283 284 285 287 288 287 287 285 285 285 285 283 282 283 285 284 285 286 288 291 291 294 293 293 296 298 301 302 297 286 276 272 272 275 279 283 285
281 280 280 280 279 279 280 282 284 285 285 285 284 284 284 285 284 281 280 280 280 282 283 283 284 286 288 289 291 290 289 288 290 294 295 289 280 275 274 276 279 282 284
280 278 278 278 278 277 278 280 281 283 283 284 283 283 284 284 283 279 279 278 276 278 281 280 280 280 282 285 286 286 284 282 284 285 288 288 283 277 274 276 278 279 282
278 277 277 277 278 278 278 279 280 281 281 281 282 282 283 282 282 280 279 279 276 276 276 276 278 279 281 283 282 281 279 278 279 279 282 286 283 277 277 277 276 277 281
276 276 276 277 278 279 279 279 279 279 279 279 280 281 282 281 280 280 280 279 276 274 272 273 276 277 279 281 280 278 276 276 277 278 279 280 280 276 277 277 276 276 276
274 275 277 274 276 279 279 281 282 281 278 278 279 279 279 280 279 279 279 277 275 273 270 271 274 275 275 276 276 273 272 273 275 277 277 278 279 277 275 275 276 275 275
272 273 275 273 274 278 282 282 282 282 281 279 279 279 277 277 278 277 274 273 272 269 268 269 271 272 274 275 274 272 271 272 273 275 276 278 280 278 275 274 275 275 273
271 272 272 273 275 276 278 280 280 280 280 278 277 278 277 277 275 274 273 273 269 265 265 270 271 271 273 274 273 270 270 270 271 273 275 277 279 278 274 272 272 273 274
270 270 270 274 275 278 279 278 277 277 276 274 273 275 276 275 275 274 273 272 269 266 267 270 271 271 273 276 276 275 272 273 274 274 274 276 278 278 275 273 272 273 275
270 270 270 272 274 276 277 279 279 277 276 274 272 272 273 274 272 270 269 269 266 266 268 271 271 271 273 273 273 275 276 275 274 274 275 275 277 277 275 273 272 273 274
Height
5808 5806 5805 5803 5800 5798 5796 5793 5790 5788 5785 5783 5781 5778 5776 5774 5772 5770 5768 5766 5765 5764 5762 5761 5760 5759 5758 5757 5756 5755 5754 5753 5753 5753 5753 5752 5752 5752 5752 5751 5750 5750 5749
5804 5803 5801 5798 5796 5794 5792 5789 5786 5784 5781 5779 5776 5773 5771 5769 5767 5765 5763 5761 5759 5758 5757 5756 5755 5754 5753 5752 5751 5750 5749 5748 5747 5747 5746 5746 5746 5745 5745 5744 5743 5742 5742
5800 5798 5796 5794 5792 5790 5788 5785 5783 5780 5777 5774 5772 5769 5766 5764 5761 5759 5757 5755 5753 5752 5751 5751 5750 5749 5749 5748 5747 5745 5744 5743 5742 5741 5741 5740 5740 5739 5739 5738 5737 5736 5735
5796 5794 5792 5790 5789 5787 5784 5782 5779 5777 5774 5770 5768 5765 5762 5759 5756 5754 5751 5749 5748 5747 5746 5746 5745 5745 5744 5743 5742 5741 5740 5738 5737 5736 5735 5735 5734 5733 5733 5732 5731 5730 5729
5791 5790 5788 5786 5785 5783 5780 5778 5776 5773 5770 5766 5763 5761 5758 5755 5752 5749 5747 5744 5743 5742 5741 5741 5741 5740 5739 5738 5737 5736 5735 5734 5733 5732 5731 5730 5729 5728 5727 5726 5726 5724 5724
5787 5785 5784 5782 5781 5778 5776 5774 5772 5769 5766 5763 5760 5756 5753 5750 5748 5745 5742 5740 5739 5738 5737 5737 5737 5736 5735 5734 5733 5732 5731 5730 5728 5727 5726 5725 5724 5723 5722 5721 5720 5720 5719
5782 5781 5779 5778 5776 5774 5772 5770 5768 5766 5763 5759 5756 5753 5749 5747 5744 5742 5739 5737 5735 5734 5734 5734 5733 5731 5730 5730 5729 5728 5726 5725 5724 5723 5722 5721 5719 5718 5717 5716 5716 5715 5715
5778 5776 5774 5773 5772 5770 5768 5766 5764 5761 5758 5755 5752 5749 5747 5744 5742 5739 5737 5735 5734 5732 5731 5731 5730 5728 5727 5726 5725 5723 5722 5720 5719 5718 5717 5716 5715 5714 5713 5712 5712 5712 5712
5773 5771 5769 5768 5766 5765 5763 5761 5759 5757 5754 5751 5748 5746 5743 5741 5739 5737 5735 5733 5732 5731 5729 5728 5727 5726 5724 5722 5721 5719 5718 5716 5715 5714 5713 5712 5711 5710 5709 5709 5709 5709 5709
5767 5765 5764 5763 5761 5759 5758 5756 5754 5752 5749 5747 5744 5742 5740 5738 5736 5734 5733 5731 5730 5729 5727 5726 5724 5723 5721 5719 5717 5716 5714 5712 5711 5710 5709 5708 5707 5707 5706 5706 5707 5707 5707
5761 5760 5759 5757 5756 5754 5753 5751 5749 5747 5745 5742 5740 5738 5736 5734 5733 5731 5730 5728 5727 5726 5725 5723 5722 5720 5718 5717 5715 5713 5711 5709 5708 5707 5706 5705 5704 5704 5704 5704 5704 5704 5705
5755 5754 5753 5751 5750 5749 5747 5746 5744 5742 5740 5738 5735 5734 5732 5730 5729 5728 5727 5725 5724 5723 5722 5721 5719 5718 5716 5715 5713 5711 5709 5707 5705 5704 5703 5702 5702 5702 5701 5701 5702 5702 5702
5749 5748 5747 5745 5744 5743 5742 5740 5739 5737 5735 5732 5731 5729 5728 5726 5725 5724 5723 5722 5721 5720 5719 5718 5717 5715 5714 5712 5711 5708 5706 5704 5702 5701 5700 5700 5700 5699 5699 5699 5699 5699 5699
5742 5741 5740 5739 5738 5737 5736 5734 5733 5731 5729 5727 5725 5724 5723 5722 5721 5720 5719 5719 5718 5717 5716 5715 5714 5712 5711 5709 5708 5706 5704 5702 5700 5698 5697 5697 5697 5697 5697 5697 5697 5697 5697
5734 5734 5733 5732 5731 5730 5729 5728 5726 5725 5723 5721 5720 5718 5718 5717 5716 5716 5715 5714 5713 5712 5711 5710 5710 5709 5708 5706 5705 5704 5702 5700 5698 5696 5695 5694 5694 5694 5694 5694 5695 5695 5695
5727 5727 5726 5725 5724 5723 5723 5722 5720 5719 5717 5716 5714 5713 5712 5712 5711 5710 5710 5709 5709 5708 5707 5706 5706 5705 5704 5703 5702 5700 5699 5697 5695 5694 5692 5692 5692 5692 5692 5692 5692 5692 5692
5720 5719 5718 5718 5717 5716 5716 5715 5714 5713 5711 5710 5709 5708 5707 5706 5705 5705 5704 5704 5703 5703 5702 5702 5702 5701 5700 5699 5698 5697 5696 5694 5693 5691 5690 5689 5689 5689 5689 5689 5690 5690 5690
5713 5712 5711 5711 5710 5709 5709 5708 5707 5706 5706 5705 5703 5702 5701 5700 5700 5699 5699 5698 5698 5698 5698 5698 5697 5697 5696 5695 5694 5693 5692 5691 5690 5689 5688 5687 5687 5686 5686 5686 5687 5686 5686
5705 5705 5704 5704 5703 5702 5702 5701 5700 5700 5699 5698 5697 5696 5695 5695 5694 5693 5693 5692 5693 5693 5692 5692 5692 5692 5691 5690 5689 5688 5688 5687 5686 5686 5685 5684 5683 5683 5683 5683 5683 5683 5683
5698 5697 5696 5696 5696 5695 5694 5694 5693 5692 5692 5691 5691 5690 5689 5688 5688 5688 5687 5687 5687 5687 5687 5687 5687 5686 5686 5685 5684 5684 5683 5683 5682 5682 5681 5680 5680 5679 5679 5679 5679 5679 5679
5690 5689 5689 5688 5688 5687 5687 5686 5686 5685 5684 5684 5683 5683 5683 5682 5682 5681 5681 5681 5681 5681 5681 5681 5681 5681 5681 5680 5679 5679 5678 5678 5678 5677 5677 5676 5676 5675 5675 5675 5675 5675 5675
5682 5682 5682 5681 5681 5680 5679 5679 5678 5677 5677 5677 5676 5676 5676 5675 5675 5675 5675 5674 5674 5675 5675 5675 5675 5675 5675 5675 5674 5674 5674 5673 5673 5673 5672 5672 5671 5671 5671 5671 5671 5671 5671
5675 5674 5674 5674 5673 5673 5672 5671 5671 5670 5670 5669 5669 5669 5669 5668 5668 5668 5668 5668 5668 5669 5669 5670 5670 5670 5669 5669 5669 5668 5668 5668 5668 5667 5667 5666 5666 5666 5666 5666 5666 5666 5666
5666 5667 5667 5666 5666 5666 5665 5664 5664 5663 5663 5662 5662 5662 5662 5662 5661 5662 5662 5662 5662 5662 5663 5663 5663 5663 5664 5663 5663 5662 5662 5662 5662 5661 5661 5660 5660 5660 5660 5660 5660 5660 5660
5658 5658 5659 5659 5658 5658 5657 5657 5656 5656 5655 5655 5655 5655 5656 5655 5655 5655 5656 5656 5656 5657 5657 5657 5657 5657 5658 5658 5657 5656 5656 5656 5655 5655 5655 5654 5654 5653 5653 5653 5654 5654 5654
5650 5650 5651 5651 5651 5650 5650 5649 5648 5648 5648 5648 5648 5648 5648 5648 5649 5649 5649 5650 5650 5650 5651 5651 5651 5651 5651 5651 5651 5650 5649 5649 5649 5648 5648 5648 5648 5647 5647 5647 5647 5647 5647